sat.trackr.live / text

‹ back to catalog

STARLINK-5864

NORAD 55940 · 2023-037AC

PAYLOAD ACTIVE UNKNOWN

§ Identity

Operator
Country
US
Launch date
2023-03-17
Launch site
AFWTR
Launch vehicle
Mass (kg)
RCS (m²)

Purposes: comms

External: N2YO · Heavens-Above · Gunter

§ Orbital elements

Epoch: 2026-05-25T03:38:45.887136Z

Period
96.11 min
Inclination
69.9999°
Eccentricity
0.0002975
Mean motion
14.98333000 rev/d
Perigee alt
570.0 km
Apogee alt
574.1 km
Semi-major
6,950.2 km
B*
1.7430e-5
RAAN
91.6656°
Arg perigee
269.5033°
Mean anomaly
90.5785°
Rev number
17,543

§ Raw data

STARLINK-58641 55940U 23037AC  26145.15191999  .00000115  00000+0  17430-4 0  99952 55940  69.9999  91.6656 0002975 269.5033  90.5785 14.98333000175435

JSON: /api/v1/satellites/55940 · /tle

For live sub-satellite position, see the globe view (requires WebGL).

§ Visibility from observer

Set your observer location to see the next 7 days of passes ≥ 10°. The values pass through the URL so the page stays shareable.

No JS? Fill the form by hand. The geolocation button needs JavaScript.